Time,TemperatureF,DewpointF,PressureIn,WindDirection,WindDirectionDegrees,WindSpeedMPH,WindSpeedGustMPH,Humidity,HourlyPrecipIn,Conditions,Clouds,dailyrainin,SoftwareType,DateUTC
2013-03-07 00:01:00,9.0,9.0,-100.00,ENE,65,2.0,2.0,95,0.00,,,0.00,,2013-03-07 06:01:00,
2013-03-07 00:11:00,9.0,7.0,-100.00,ENE,75,2.0,3.0,94,0.00,,,0.00,,2013-03-07 06:11:00,
2013-03-07 00:21:00,9.0,7.0,-100.00,ENE,75,2.0,2.0,94,0.00,,,0.00,,2013-03-07 06:21:00,
2013-03-07 00:31:00,9.0,7.0,-100.00,East,85,2.0,3.0,93,0.00,,,0.00,,2013-03-07 06:31:00,
2013-03-07 00:41:00,7.0,5.0,-100.00,East,85,0.0,1.0,92,0.00,,,0.00,,2013-03-07 06:41:00,
2013-03-07 00:51:00,7.0,5.0,-100.00,East,85,0.0,0.0,93,0.00,,,0.00,,2013-03-07 06:51:00,
2013-03-07 01:01:00,8.0,7.0,-100.00,South,180,0.0,0.0,94,0.00,,,0.00,,2013-03-07 07:01:00,
2013-03-07 01:11:00,8.0,7.0,-100.00,South,180,0.0,0.0,94,0.00,,,0.00,,2013-03-07 07:11:00,
2013-03-07 01:21:00,7.0,5.0,-100.00,SSE,155,0.0,1.0,92,0.00,,,0.00,,2013-03-07 07:21:00,
2013-03-07 01:32:00,6.0,3.0,-100.00,East,95,2.0,2.0,91,0.00,,,0.00,,2013-03-07 07:32:00,
2013-03-07 01:42:00,6.0,3.0,-100.00,East,90,2.0,2.0,90,0.00,,,0.00,,2013-03-07 07:42:00,
2013-03-07 01:52:00,5.0,3.0,-100.00,East,90,2.0,2.0,90,0.00,,,0.00,,2013-03-07 07:52:00,
2013-03-07 02:02:00,4.0,1.0,-100.00,East,95,0.0,1.0,89,0.00,,,0.00,,2013-03-07 08:02:00,
2013-03-07 02:12:00,3.0,1.0,-100.00,ENE,75,1.0,1.0,88,0.00,,,0.00,,2013-03-07 08:12:00,
2013-03-07 02:22:00,2.0,0.0,-100.00,East,90,1.0,1.0,88,0.00,,,0.00,,2013-03-07 08:22:00,
2013-03-07 02:33:00,2.0,0.0,-100.00,East,80,2.0,2.0,87,0.00,,,0.00,,2013-03-07 08:33:00,
2013-03-07 02:43:00,1.0,-2.0,-100.00,ENE,75,2.0,2.0,86,0.00,,,0.00,,2013-03-07 08:43:00,
2013-03-07 02:52:00,0.0,-4.0,-100.00,NE,45,1.0,2.0,86,0.00,,,0.00,,2013-03-07 08:52:00,
2013-03-07 03:03:00,0.0,-4.0,-100.00,NE,50,1.0,2.0,86,0.00,,,0.00,,2013-03-07 09:03:00,
2013-03-07 03:12:00,0.0,-2.0,-100.00,East,80,2.0,3.0,86,0.00,,,0.00,,2013-03-07 09:12:00,
2013-03-07 03:22:00,1.0,-2.0,-100.00,ENE,75,2.0,2.0,87,0.00,,,0.00,,2013-03-07 09:22:00,
2013-03-07 03:32:00,1.0,-2.0,-100.00,East,80,2.0,2.0,87,0.00,,,0.00,,2013-03-07 09:32:00,
2013-03-07 03:42:00,2.0,0.0,-100.00,East,85,2.0,3.0,89,0.00,,,0.00,,2013-03-07 09:42:00,
2013-03-07 03:52:00,2.0,0.0,-100.00,East,85,2.0,3.0,88,0.00,,,0.00,,2013-03-07 09:52:00,
2013-03-07 04:02:00,0.0,-2.0,-100.00,East,90,2.0,4.0,86,0.00,,,0.00,,2013-03-07 10:02:00,
2013-03-07 04:12:00,0.0,-2.0,-100.00,ENE,65,1.0,2.0,86,0.00,,,0.00,,2013-03-07 10:12:00,
2013-03-07 04:22:00,-1.0,-4.0,-100.00,East,90,1.0,2.0,86,0.00,,,0.00,,2013-03-07 10:22:00,
2013-03-07 04:32:00,0.0,-2.0,-100.00,ESE,110,0.0,2.0,86,0.00,,,0.00,,2013-03-07 10:32:00,
2013-03-07 04:42:00,0.0,-4.0,-100.00,ESE,110,0.0,0.0,86,0.00,,,0.00,,2013-03-07 10:42:00,
2013-03-07 04:52:00,0.0,-4.0,-100.00,ESE,115,0.0,0.0,86,0.00,,,0.00,,2013-03-07 10:52:00,
2013-03-07 05:02:00,1.0,-2.0,-100.00,South,180,0.0,1.0,87,0.00,,,0.00,,2013-03-07 11:02:00,
2013-03-07 05:12:00,0.0,-2.0,-100.00,SSE,165,0.0,1.0,86,0.00,,,0.00,,2013-03-07 11:12:00,
2013-03-07 05:23:00,0.0,-2.0,-100.00,SSE,165,0.0,0.0,86,0.00,,,0.00,,2013-03-07 11:23:00,
2013-03-07 05:33:00,0.0,-4.0,-100.00,ENE,60,0.0,1.0,86,0.00,,,0.00,,2013-03-07 11:33:00,
2013-03-07 06:02:00,0.0,-4.0,-100.00,ESE,120,0.0,1.0,86,0.00,,,0.00,,2013-03-07 12:02:00,
2013-03-07 06:12:00,-1.0,-4.0,-100.00,SSW,210,0.0,1.0,85,0.00,,,0.00,,2013-03-07 12:12:00,
2013-03-07 06:22:00,0.0,-4.0,-100.00,SE,130,0.0,0.0,86,0.00,,,0.00,,2013-03-07 12:22:00,
2013-03-07 06:42:00,0.0,-2.0,-100.00,East,100,0.0,1.0,86,0.00,,,0.00,,2013-03-07 12:42:00,
2013-03-07 06:52:00,0.0,-2.0,-100.00,ENE,60,0.0,1.0,86,0.00,,,0.00,,2013-03-07 12:52:00,
2013-03-07 07:02:00,1.0,-2.0,-100.00,ESE,115,0.0,1.0,86,0.00,,,0.00,,2013-03-07 13:02:00,
2013-03-07 07:12:00,0.0,-2.0,-100.00,ESE,115,0.0,1.0,86,0.00,,,0.00,,2013-03-07 13:12:00,
2013-03-07 07:22:00,0.0,-2.0,-100.00,South,180,2.0,3.0,86,0.00,,,0.00,,2013-03-07 13:22:00,
2013-03-07 07:32:00,0.0,-4.0,-100.00,SSE,155,2.0,3.0,85,0.00,,,0.00,,2013-03-07 13:32:00,
2013-03-07 07:42:00,0.0,-2.0,-100.00,East,100,0.0,2.0,86,0.00,,,0.00,,2013-03-07 13:42:00,
2013-03-07 07:52:00,2.0,-2.0,-100.00,SSE,150,0.0,2.0,86,0.00,,,0.00,,2013-03-07 13:52:00,
2013-03-07 08:02:00,3.0,0.0,-100.00,South,185,4.0,4.0,87,0.00,,,0.00,,2013-03-07 14:02:00,
2013-03-07 08:12:00,5.0,1.0,-100.00,SSE,150,1.0,4.0,88,0.00,,,0.00,,2013-03-07 14:12:00,
2013-03-07 08:22:00,4.0,1.0,-100.00,South,185,2.0,3.0,88,0.00,,,0.00,,2013-03-07 14:22:00,
2013-03-07 08:32:00,5.0,1.0,-100.00,South,185,2.0,4.0,88,0.00,,,0.00,,2013-03-07 14:32:00,
2013-03-07 08:42:00,5.0,3.0,-100.00,South,175,2.0,3.0,88,0.00,,,0.00,,2013-03-07 14:42:00,
2013-03-07 08:52:00,7.0,5.0,-100.00,South,170,3.0,6.0,90,0.00,,,0.00,,2013-03-07 14:52:00,
2013-03-07 09:02:00,8.0,5.0,-100.00,SSE,155,4.0,6.0,90,0.00,,,0.00,,2013-03-07 15:02:00,
2013-03-07 09:12:00,9.0,7.0,-100.00,SSE,150,6.0,9.0,91,0.00,,,0.00,,2013-03-07 15:12:00,
2013-03-07 09:22:00,13.0,12.0,-100.00,South,175,4.0,8.0,94,0.00,,,0.00,,2013-03-07 15:22:00,
2013-03-07 09:32:00,16.0,14.0,-100.00,SE,130,9.0,11.0,92,0.00,,,0.00,,2013-03-07 15:32:00,
2013-03-07 09:42:00,17.0,14.0,-100.00,ESE,120,6.0,12.0,86,0.00,,,0.00,,2013-03-07 15:42:00,
2013-03-07 09:52:00,18.0,12.0,-100.00,SE,145,7.0,14.0,81,0.00,,,0.00,,2013-03-07 15:52:00,
2013-03-07 10:02:00,18.0,12.0,-100.00,East,85,7.0,12.0,76,0.00,,,0.00,,2013-03-07 16:02:00,
2013-03-07 10:12:00,18.0,12.0,-100.00,SE,130,7.0,14.0,77,0.00,,,0.00,,2013-03-07 16:12:00,
2013-03-07 10:23:00,19.0,12.0,-100.00,ESE,115,7.0,13.0,77,0.00,,,0.00,,2013-03-07 16:23:00,
2013-03-07 10:32:00,20.0,12.0,-100.00,SE,125,6.0,12.0,75,0.00,,,0.00,,2013-03-07 16:32:00,
2013-03-07 10:42:00,21.0,14.0,-100.00,SE,135,7.0,13.0,75,0.00,,,0.00,,2013-03-07 16:42:00,
2013-03-07 10:52:00,21.0,14.0,-100.00,SSE,150,7.0,11.0,75,0.00,,,0.00,,2013-03-07 16:52:00,
2013-03-07 11:02:00,21.0,14.0,-100.00,SE,140,9.0,14.0,77,0.00,,,0.00,,2013-03-07 17:02:00,
2013-03-07 11:12:00,21.0,16.0,-100.00,SSE,155,7.0,14.0,76,0.00,,,0.00,,2013-03-07 17:12:00,
2013-03-07 11:22:00,24.0,16.0,-100.00,SE,125,4.0,16.0,73,0.00,,,0.00,,2013-03-07 17:22:00,
2013-03-07 11:32:00,24.0,18.0,-100.00,SE,145,6.0,15.0,74,0.00,,,0.00,,2013-03-07 17:32:00,
2013-03-07 11:42:00,24.0,18.0,-100.00,ESE,115,8.0,13.0,74,0.00,,,0.00,,2013-03-07 17:42:00,
2013-03-07 11:53:00,25.0,18.0,-100.00,SE,140,6.0,13.0,72,0.00,,,0.00,,2013-03-07 17:53:00,
2013-03-07 12:03:00,24.0,16.0,-100.00,SE,140,10.0,13.0,71,0.00,,,0.00,,2013-03-07 18:03:00,
2013-03-07 12:12:00,25.0,18.0,-100.00,SE,140,6.0,12.0,73,0.00,,,0.00,,2013-03-07 18:12:00,
2013-03-07 12:22:00,24.0,18.0,-100.00,ESE,120,10.0,13.0,73,0.00,,,0.00,,2013-03-07 18:22:00,
2013-03-07 12:32:00,25.0,18.0,-100.00,SE,135,7.0,14.0,73,0.00,,,0.00,,2013-03-07 18:32:00,
2013-03-07 12:42:00,26.0,18.0,-100.00,ESE,105,7.0,17.0,71,0.00,,,0.00,,2013-03-07 18:42:00,
2013-03-07 12:52:00,26.0,18.0,-100.00,ESE,110,9.0,14.0,70,0.00,,,0.00,,2013-03-07 18:52:00,
2013-03-07 13:02:00,26.0,18.0,-100.00,SE,135,7.0,16.0,71,0.00,,,0.00,,2013-03-07 19:02:00,
2013-03-07 13:12:00,25.0,18.0,-100.00,ESE,105,12.0,16.0,72,0.00,,,0.00,,2013-03-07 19:12:00,
2013-03-07 13:23:00,27.0,18.0,-100.00,SE,135,11.0,15.0,69,0.00,,,0.00,,2013-03-07 19:23:00,
2013-03-07 13:34:00,26.0,18.0,-100.00,ESE,120,12.0,17.0,71,0.00,,,0.00,,2013-03-07 19:34:00,
2013-03-07 13:43:00,28.0,19.0,-100.00,SSE,155,7.0,16.0,71,0.00,,,0.00,,2013-03-07 19:43:00,
2013-03-07 13:52:00,26.0,18.0,-100.00,SE,135,15.0,18.0,70,0.00,,,0.00,,2013-03-07 19:52:00,
2013-03-07 14:02:00,28.0,19.0,-100.00,SE,140,7.0,17.0,70,0.00,,,0.00,,2013-03-07 20:02:00,
2013-03-07 14:13:00,28.0,19.0,-100.00,ESE,115,12.0,19.0,69,0.00,,,0.00,,2013-03-07 20:13:00,
2013-03-07 14:22:00,27.0,19.0,-100.00,ESE,105,12.0,19.0,68,0.00,,,0.00,,2013-03-07 20:22:00,
2013-03-07 14:33:00,28.0,18.0,-100.00,SE,125,13.0,21.0,66,0.00,,,0.00,,2013-03-07 20:33:00,
2013-03-07 14:42:00,28.0,19.0,-100.00,SE,125,12.0,19.0,66,0.00,,,0.00,,2013-03-07 20:42:00,
2013-03-07 14:53:00,28.0,21.0,-100.00,East,100,8.0,17.0,71,0.00,,,0.00,,2013-03-07 20:53:00,
2013-03-07 15:02:00,29.0,21.0,-100.00,ESE,105,10.0,20.0,71,0.00,,,0.00,,2013-03-07 21:02:00,
2013-03-07 15:12:00,28.0,19.0,-100.00,East,95,11.0,17.0,71,0.00,,,0.00,,2013-03-07 21:12:00,
2013-03-07 15:22:00,28.0,19.0,-100.00,East,85,12.0,18.0,72,0.00,,,0.00,,2013-03-07 21:22:00,
2013-03-07 15:32:00,28.0,19.0,-100.00,East,85,13.0,17.0,73,0.00,,,0.00,,2013-03-07 21:32:00,
2013-03-07 15:42:00,27.0,19.0,-100.00,East,85,12.0,19.0,74,0.00,,,0.00,,2013-03-07 21:42:00,
2013-03-07 15:52:00,27.0,19.0,-100.00,East,100,12.0,18.0,73,0.00,,,0.00,,2013-03-07 21:52:00,
2013-03-07 16:01:00,28.0,19.0,-100.00,East,85,12.0,19.0,73,0.00,,,0.00,,2013-03-07 22:01:00,
2013-03-07 16:11:00,27.0,19.0,-100.00,ESE,110,11.0,17.0,73,0.00,,,0.00,,2013-03-07 22:11:00,
2013-03-07 16:22:00,27.0,19.0,-100.00,East,100,12.0,19.0,73,0.00,,,0.00,,2013-03-07 22:22:00,
2013-03-07 16:32:00,27.0,19.0,-100.00,East,90,12.0,20.0,74,0.00,,,0.00,,2013-03-07 22:32:00,
2013-03-07 16:42:00,27.0,19.0,-100.00,East,95,9.0,19.0,74,0.00,,,0.00,,2013-03-07 22:42:00,
2013-03-07 16:52:00,27.0,19.0,-100.00,ESE,115,11.0,22.0,75,0.00,,,0.00,,2013-03-07 22:52:00,
2013-03-07 17:02:00,26.0,19.0,-100.00,ESE,105,12.0,23.0,76,0.00,,,0.00,,2013-03-07 23:02:00,
2013-03-07 17:12:00,26.0,19.0,-100.00,East,95,9.0,20.0,76,0.00,,,0.00,,2013-03-07 23:12:00,
2013-03-07 17:22:00,26.0,19.0,-100.00,ESE,105,15.0,20.0,78,0.00,,,0.00,,2013-03-07 23:22:00,
2013-03-07 17:33:00,26.0,21.0,-100.00,ESE,105,11.0,18.0,79,0.00,,,0.00,,2013-03-07 23:33:00,
2013-03-07 17:42:00,26.0,19.0,-100.00,SE,125,11.0,17.0,79,0.00,,,0.00,,2013-03-07 23:42:00,
2013-03-07 17:52:00,26.0,19.0,-100.00,ESE,105,7.0,16.0,80,0.00,,,0.00,,2013-03-07 23:52:00,
2013-03-07 18:03:00,25.0,21.0,-100.00,ESE,105,8.0,14.0,82,0.00,,,0.00,,2013-03-08 00:03:00,
2013-03-07 18:12:00,25.0,21.0,-100.00,East,100,10.0,15.0,83,0.00,,,0.00,,2013-03-08 00:12:00,
2013-03-07 18:22:00,25.0,21.0,-100.00,ESE,110,9.0,14.0,83,0.00,,,0.00,,2013-03-08 00:22:00,
2013-03-07 18:33:00,24.0,21.0,-100.00,East,95,9.0,17.0,84,0.00,,,0.00,,2013-03-08 00:33:00,
2013-03-07 18:43:00,24.0,21.0,-100.00,East,95,8.0,16.0,84,0.00,,,0.00,,2013-03-08 00:43:00,
2013-03-07 18:52:00,24.0,21.0,-100.00,ESE,115,7.0,16.0,85,0.00,,,0.00,,2013-03-08 00:52:00,
2013-03-07 19:02:00,24.0,21.0,-100.00,ESE,110,11.0,16.0,85,0.00,,,0.00,,2013-03-08 01:02:00,
2013-03-07 19:11:00,24.0,21.0,-100.00,ESE,105,12.0,19.0,85,0.00,,,0.00,,2013-03-08 01:11:00,
2013-03-07 19:21:00,24.0,21.0,-100.00,SE,125,9.0,15.0,87,0.00,,,0.00,,2013-03-08 01:21:00,
2013-03-07 19:32:00,23.0,21.0,-100.00,ESE,105,9.0,16.0,88,0.00,,,0.00,,2013-03-08 01:32:00,
2013-03-07 19:42:00,23.0,21.0,-100.00,East,100,8.0,16.0,88,0.00,,,0.00,,2013-03-08 01:42:00,
2013-03-07 19:51:00,23.0,19.0,-100.00,ESE,115,11.0,17.0,88,0.00,,,0.00,,2013-03-08 01:51:00,
2013-03-07 20:01:00,23.0,19.0,-100.00,SE,130,10.0,16.0,87,0.00,,,0.00,,2013-03-08 02:01:00,
2013-03-07 20:11:00,23.0,19.0,-100.00,ESE,115,10.0,17.0,86,0.00,,,0.00,,2013-03-08 02:11:00,
2013-03-07 20:21:00,23.0,19.0,-100.00,ESE,105,11.0,18.0,86,0.00,,,0.00,,2013-03-08 02:21:00,
2013-03-07 20:31:00,23.0,19.0,-100.00,ESE,110,11.0,17.0,86,0.00,,,0.00,,2013-03-08 02:31:00,
2013-03-07 20:42:00,23.0,19.0,-100.00,SE,125,10.0,17.0,87,0.00,,,0.00,,2013-03-08 02:42:00,
2013-03-07 20:52:00,22.0,19.0,-100.00,SE,135,8.0,15.0,87,0.00,,,0.00,,2013-03-08 02:52:00,
2013-03-07 21:02:00,22.0,19.0,-100.00,ESE,120,7.0,14.0,87,0.00,,,0.00,,2013-03-08 03:02:00,
2013-03-07 21:22:00,22.0,19.0,-100.00,ESE,115,9.0,16.0,88,0.00,,,0.00,,2013-03-08 03:22:00,
2013-03-07 21:32:00,22.0,19.0,-100.00,SE,140,11.0,14.0,89,0.00,,,0.00,,2013-03-08 03:32:00,
2013-03-07 21:42:00,22.0,19.0,-100.00,SE,125,10.0,16.0,89,0.00,,,0.00,,2013-03-08 03:42:00,
2013-03-07 21:52:00,22.0,19.0,-100.00,SE,145,11.0,14.0,89,0.00,,,0.00,,2013-03-08 03:52:00,
2013-03-07 22:01:00,22.0,19.0,-100.00,SE,125,8.0,17.0,91,0.00,,,0.00,,2013-03-08 04:01:00,
2013-03-07 22:11:00,22.0,19.0,-100.00,SE,130,8.0,17.0,91,0.00,,,0.00,,2013-03-08 04:11:00,
2013-03-07 22:21:00,22.0,19.0,-100.00,ESE,115,13.0,22.0,91,0.00,,,0.00,,2013-03-08 04:21:00,
2013-03-07 22:32:00,22.0,19.0,-100.00,SE,135,12.0,17.0,91,0.00,,,0.00,,2013-03-08 04:32:00,
2013-03-07 22:42:00,22.0,19.0,-100.00,SE,140,12.0,19.0,92,0.00,,,0.00,,2013-03-08 04:42:00,
2013-03-07 22:51:00,21.0,19.0,-100.00,SE,145,10.0,21.0,92,0.00,,,0.00,,2013-03-08 04:51:00,
2013-03-07 23:02:00,21.0,19.0,-100.00,SSE,155,9.0,16.0,92,0.00,,,0.00,,2013-03-08 05:02:00,
2013-03-07 23:12:00,21.0,19.0,-100.00,SSE,155,9.0,15.0,92,0.00,,,0.00,,2013-03-08 05:12:00,
2013-03-07 23:22:00,21.0,19.0,-100.00,SE,140,7.0,15.0,92,0.00,,,0.00,,2013-03-08 05:22:00,
2013-03-07 23:32:00,20.0,18.0,-100.00,SSE,150,7.0,14.0,93,0.00,,,0.00,,2013-03-08 05:32:00,
2013-03-07 23:42:00,20.0,18.0,-100.00,SE,135,9.0,12.0,93,0.00,,,0.00,,2013-03-08 05:42:00,
2013-03-07 23:52:00,20.0,19.0,-100.00,SE,140,9.0,15.0,93,0.00,,,0.00,,2013-03-08 05:52:00,